Location: STAR School
(35.3054°N, 111.2976°W)
Time: 18:22:06
(UTC-07:00)

Transit 2A Rocket - Pass Details

Date: 30 May 2019
Orbit: 586 x 917 km, 66.7° (Epoch: 14 June)

Event Time Altitude Azimuth Distance (km) Brightness Sun altitude
Rises 23:53:49 0° 348° (NNW) 3,378 9.4 -32.5°
Reaches altitude 10° 23:57:25 10° 10° (N) 2,370 8.3 -32.6°
Maximum altitude 00:00:35 16° 46° (NE) 1,943 7.4 -32.7°
Enters shadow 00:01:59 14° 64° (ENE) 1,992 7.3 -32.7°
